Temp
-6 -7 -7 -7 -7 -7 -7 -6 -6 -7 -7 -7 -7 -7 -7 -8 -8 -8 -8 -9 -8 -8 -8 -8 -8 -7 -7 -7 -7 -7 -6 -6 -7 -6 -6 -6 -6 -6 -6 -7 -6 -6 -6 -6 -6 -7 -7 -7 -7
-6 -7 -7 -7 -7 -7 -7 -6 -6 -6 -7 -7 -7 -7 -7 -7 -8 -8 -8 -8 -8 -8 -8 -8 -8 -8 -7 -7 -7 -7 -7 -7 -7 -6 -6 -6 -6 -6 -6 -6 -6 -6 -6 -7 -7 -7 -7 -6 -6
-6 -6 -7 -7 -7 -7 -7 -7 -6 -6 -7 -7 -7 -7 -7 -7 -7 -8 -8 -8 -8 -8 -8 -8 -8 -7 -7 -6 -6 -6 -6 -7 -6 -6 -6 -6 -6 -6 -6 -6 -6 -7 -7 -7 -7 -7 -7 -6 -6
-6 -6 -7 -7 -6 -6 -6 -6 -6 -6 -7 -7 -7 -7 -7 -7 -7 -7 -8 -9 -8 -8 -8 -8 -7 -7 -7 -7 -6 -6 -6 -6 -7 -6 -7 -7 -6 -6 -6 -7 -7 -7 -7 -7 -7 -7 -6 -6 -6
-5 -7 -7 -7 -6 -6 -6 -5 -6 -6 -7 -7 -7 -7 -7 -8 -7 -8 -8 -9 -8 -8 -8 -8 -8 -7 -8 -7 -7 -7 -6 -7 -6 -6 -7 -6 -6 -7 -7 -7 -7 -7 -7 -7 -7 -6 -6 -6 -7
-6 -7 -7 -7 -6 -7 -6 -6 -6 -6 -6 -7 -7 -7 -7 -8 -8 -8 -8 -8 -8 -8 -8 -7 -8 -7 -8 -7 -7 -7 -7 -6 -7 -7 -7 -7 -7 -7 -7 -7 -7 -7 -7 -7 -6 -6 -6 -7 -7
-6 -7 -8 -7 -7 -6 -6 -6 -6 -6 -6 -7 -7 -7 -7 -8 -8 -7 -8 -9 -8 -8 -8 -8 -8 -8 -8 -7 -7 -7 -7 -7 -7 -7 -8 -8 -8 -8 -7 -7 -8 -7 -7 -7 -6 -7 -7 -7 -7
-5 -6 -7 -8 -7 -7 -6 -6 -6 -6 -7 -7 -7 -7 -7 -8 -8 -7 -8 -9 -8 -8 -8 -8 -8 -8 -8 -8 -8 -7 -7 -7 -8 -8 -8 -8 -8 -7 -7 -8 -7 -7 -7 -7 -7 -7 -7 -7 -7
-5 -6 -7 -7 -7 -7 -6 -6 -6 -6 -7 -7 -7 -7 -7 -8 -8 -7 -8 -9 -8 -8 -8 -9 -8 -9 -9 -8 -8 -8 -7 -7 -8 -9 -8 -8 -7 -7 -7 -7 -7 -7 -7 -7 -7 -7 -8 -7 -7
-5 -6 -6 -6 -7 -7 -7 -6 -6 -6 -6 -7 -7 -7 -8 -8 -8 -8 -8 -8 -9 -9 -9 -9 -9 -9 -9 -9 -8 -8 -8 -8 -9 -9 -8 -8 -7 -7 -7 -7 -7 -7 -7 -7 -7 -8 -8 -7 -7
-5 -6 -6 -6 -7 -7 -7 -6 -7 -6 -6 -7 -7 -7 -8 -8 -9 -9 -8 -8 -9 -9 -9 -9 -8 -9 -9 -9 -9 -9 -9 -9 -9 -8 -8 -7 -7 -7 -7 -7 -7 -7 -7 -7 -7 -7 -8 -8 -8
-5 -6 -6 -6 -6 -7 -6 -6 -7 -6 -6 -7 -7 -7 -8 -8 -9 -8 -8 -9 -9 -9 -9 -9 -9 -9 -9 -9 -9 -9 -9 -9 -9 -8 -8 -8 -8 -8 -8 -8 -7 -7 -7 -8 -7 -8 -8 -8 -8
-7 -6 -6 -6 -6 -7 -6 -6 -7 -6 -6 -6 -7 -7 -7 -8 -8 -9 -9 -9 -9 -9 -9 -9 -9 -9 -9 -9 -9 -8 -8 -8 -8 -7 -7 -8 -8 -8 -8 -7 -8 -7 -7 -7 -8 -8 -8 -8 -8
-6 -7 -6 -6 -5 -6 -6 -6 -7 -6 -6 -6 -6 -7 -8 -8 -8 -9 -8 -8 -9 -8 -9 -9 -9 -9 -9 -8 -8 -8 -8 -8 -8 -8 -8 -8 -8 -8 -8 -8 -8 -7 -7 -7 -8 -8 -8 -8 -9
-6 -7 -5 -6 -6 -6 -6 -6 -7 -8 -6 -6 -6 -7 -8 -8 -7 -8 -8 -8 -8 -8 -9 -9 -9 -9 -9 -8 -8 -9 -8 -8 -8 -8 -8 -7 -7 -8 -8 -8 -8 -8 -7 -8 -9 -8 -8 -9 -9
-6 -6 -6 -6 -6 -6 -6 -6 -6 -6 -7 -7 -6 -6 -8 -8 -7 -7 -8 -8 -8 -8 -8 -9 -9 -9 -9 -9 -8 -8 -8 -8 -8 -8 -7 -7 -7 -7 -8 -8 -8 -8 -8 -8 -9 -9 -9 -9 -10
-7 -6 -6 -6 -6 -6 -6 -6 -6 -6 -6 -7 -7 -6 -7 -8 -8 -7 -8 -8 -8 -8 -8 -8 -8 -9 -8 -8 -8 -8 -8 -8 -8 -8 -8 -7 -7 -7 -7 -8 -8 -8 -8 -9 -9 -9 -9 -10 -10
-7 -7 -7 -6 -6 -6 -6 -6 -6 -6 -6 -6 -7 -6 -6 -7 -7 -7 -7 -7 -8 -8 -8 -8 -8 -8 -8 -8 -8 -8 -8 -8 -8 -7 -7 -8 -7 -7 -7 -8 -8 -8 -8 -9 -9 -9 -10 -10 -10
-8 -7 -7 -6 -6 -6 -6 -6 -6 -6 -6 -6 -6 -5 -6 -7 -7 -7 -7 -7 -7 -8 -8 -8 -8 -8 -8 -8 -8 -8 -8 -7 -7 -7 -7 -8 -7 -7 -7 -7 -8 -8 -9 -9 -9 -9 -9 -10 -10
-8 -7 -7 -7 -7 -7 -6 -6 -6 -6 -6 -7 -7 -6 -6 -7 -8 -7 -7 -7 -7 -7 -8 -8 -8 -8 -8 -7 -7 -7 -7 -7 -7 -7 -7 -7 -8 -8 -7 -7 -7 -8 -8 -9 -9 -9 -9 -9 -9
-8 -8 -9 -8 -8 -7 -6 -7 -6 -5 -6 -7 -7 -6 -6 -6 -7 -8 -7 -7 -7 -7 -7 -8 -8 -8 -7 -7 -7 -7 -7 -7 -7 -7 -7 -8 -8 -8 -8 -7 -7 -8 -8 -8 -8 -8 -9 -9 -9
-9 -10 -10 -8 -8 -7 -7 -7 -6 -6 -6 -7 -7 -7 -7 -6 -6 -7 -7 -6 -7 -7 -7 -7 -7 -7 -7 -7 -6 -7 -7 -7 -7 -7 -6 -7 -7 -7 -7 -7 -7 -8 -8 -8 -8 -8 -8 -9 -10
-10 -10 -9 -9 -9 -7 -8 -8 -8 -7 -6 -6 -7 -6 -7 -6 -7 -7 -7 -6 -6 -7 -7 -7 -7 -7 -7 -7 -6 -6 -7 -7 -7 -7 -7 -6 -7 -7 -7 -7 -7 -7 -7 -8 -8 -8 -8 -9 -9
-11 -10 -10 -10 -10 -8 -8 -7 -7 -7 -7 -7 -7 -6 -6 -6 -6 -6 -6 -6 -6 -7 -7 -7 -7 -7 -7 -7 -6 -6 -6 -6 -7 -7 -7 -7 -7 -7 -7 -7 -7 -7 -7 -8 -8 -8 -8 -8 -8
-11 -11 -10 -10 -9 -9 -8 -8 -7 -6 -7 -7 -6 -6 -6 -6 -6 -6 -7 -7 -7 -7 -7 -7 -8 -7 -7 -7 -7 -7 -7 -7 -7 -7 -7 -7 -7 -6 -7 -7 -7 -7 -7 -7 -7 -7 -7 -8 -8
-12 -12 -11 -11 -10 -10 -8 -8 -7 -6 -6 -6 -7 -7 -7 -7 -6 -6 -6 -7 -7 -7 -6 -7 -7 -7 -7 -7 -7 -7 -7 -7 -7 -7 -6 -6 -7 -6 -7 -7 -7 -7 -7 -7 -7 -7 -7 -7 -7
-12 -11 -11 -10 -10 -10 -10 -8 -8 -8 -7 -7 -7 -7 -6 -6 -6 -6 -7 -7 -7 -7 -7 -6 -7 -7 -7 -7 -7 -7 -7 -7 -6 -7 -7 -6 -6 -6 -6 -6 -6 -7 -7 -7 -7 -7 -7 -7 -7
-12 -12 -11 -11 -10 -9 -9 -9 -8 -8 -8 -7 -7 -7 -7 -6 -6 -6 -6 -6 -7 -7 -7 -7 -7 -6 -7 -7 -7 -7 -7 -7 -7 -7 -6 -7 -6 -6 -6 -6 -6 -6 -7 -7 -7 -7 -7 -7 -7
-12 -12 -11 -11 -9 -10 -9 -9 -8 -8 -9 -8 -7 -7 -7 -7 -6 -6 -6 -7 -7 -7 -7 -7 -7 -7 -6 -7 -7 -7 -7 -7 -7 -7 -7 -6 -6 -6 -6 -6 -6 -6 -6 -7 -7 -7 -7 -7 -7
-12 -12 -12 -11 -11 -10 -9 -8 -8 -9 -9 -9 -9 -8 -8 -8 -7 -7 -7 -7 -7 -6 -7 -6 -6 -7 -6 -6 -6 -7 -7 -7 -7 -6 -7 -7 -6 -6 -6 -6 -6 -6 -6 -7 -7 -7 -7 -7 -7
Height
5887 5887 5887 5888 5892 5889 5887 5887 5886 5884 5884 5883 5884 5884 5884 5883 5882 5885 5883 5882 5883 5883 5882 5880 5878 5878 5878 5880 5880 5883 5886 5889 5893 5894 5897 5899 5901 5903 5903 5905 5907 5910 5911 5913 5913 5913 5914 5914 5915
5886 5888 5888 5889 5892 5890 5889 5888 5887 5885 5885 5885 5885 5885 5885 5885 5884 5884 5884 5883 5884 5885 5885 5882 5881 5881 5880 5880 5883 5885 5888 5890 5893 5895 5898 5900 5902 5905 5905 5908 5910 5912 5914 5916 5916 5916 5915 5917 5917
5887 5889 5890 5890 5892 5891 5891 5890 5889 5887 5886 5885 5886 5886 5886 5886 5885 5884 5884 5884 5886 5886 5885 5885 5884 5883 5881 5881 5884 5887 5889 5890 5893 5896 5899 5902 5904 5907 5909 5911 5913 5916 5917 5918 5918 5917 5918 5918 5918
5889 5891 5891 5891 5891 5892 5893 5893 5890 5888 5887 5887 5887 5887 5888 5887 5886 5885 5884 5885 5887 5887 5886 5885 5885 5884 5883 5884 5886 5888 5889 5892 5895 5897 5899 5904 5907 5909 5911 5914 5917 5917 5919 5918 5918 5920 5920 5920 5920
5889 5889 5890 5890 5891 5892 5894 5893 5891 5889 5888 5888 5888 5888 5888 5888 5887 5886 5885 5886 5888 5888 5888 5887 5887 5886 5885 5884 5888 5889 5890 5891 5896 5898 5901 5905 5908 5912 5915 5917 5920 5919 5919 5919 5921 5920 5922 5923 5923
5887 5889 5890 5890 5892 5893 5893 5892 5891 5890 5888 5888 5889 5889 5889 5887 5888 5887 5886 5888 5890 5891 5889 5888 5887 5887 5886 5888 5887 5890 5890 5891 5895 5900 5905 5908 5912 5915 5918 5920 5920 5920 5922 5923 5923 5923 5924 5925 5927
5887 5888 5890 5890 5892 5893 5894 5893 5893 5891 5889 5890 5890 5890 5889 5887 5888 5889 5888 5889 5891 5892 5891 5889 5889 5889 5889 5888 5890 5889 5891 5896 5900 5903 5907 5910 5914 5917 5920 5920 5921 5923 5925 5924 5924 5926 5927 5929 5930
5888 5887 5890 5891 5892 5894 5894 5894 5894 5892 5891 5891 5891 5891 5889 5888 5889 5890 5890 5891 5893 5893 5892 5892 5892 5891 5891 5891 5889 5891 5893 5897 5901 5905 5909 5912 5915 5919 5921 5922 5924 5925 5925 5926 5927 5928 5929 5931 5932
5887 5889 5890 5891 5893 5895 5895 5895 5894 5894 5894 5893 5891 5892 5891 5890 5891 5891 5891 5892 5894 5894 5894 5894 5894 5895 5894 5896 5896 5896 5897 5898 5900 5908 5911 5915 5918 5920 5922 5924 5925 5926 5927 5927 5928 5930 5931 5933 5935
5886 5888 5890 5891 5892 5894 5894 5895 5895 5896 5896 5895 5892 5893 5892 5892 5893 5893 5894 5894 5896 5897 5897 5897 5897 5898 5898 5900 5900 5901 5902 5904 5907 5910 5914 5918 5920 5922 5924 5926 5927 5928 5927 5929 5932 5932 5933 5936 5938
5888 5888 5891 5891 5892 5893 5894 5895 5896 5897 5897 5897 5895 5893 5894 5894 5895 5895 5896 5897 5897 5898 5899 5900 5900 5900 5901 5903 5904 5905 5906 5909 5912 5914 5916 5919 5922 5924 5926 5927 5928 5929 5930 5932 5934 5935 5938 5940 5941
5886 5888 5890 5890 5891 5892 5894 5895 5896 5898 5898 5898 5898 5895 5894 5895 5897 5898 5897 5898 5899 5900 5901 5902 5903 5903 5903 5906 5908 5909 5910 5911 5913 5915 5918 5920 5923 5926 5927 5928 5929 5930 5932 5935 5938 5940 5942 5943 5943
5886 5888 5890 5890 5891 5892 5893 5894 5896 5899 5898 5899 5898 5897 5897 5896 5897 5900 5900 5899 5901 5902 5903 5904 5905 5905 5906 5908 5910 5912 5914 5915 5916 5918 5920 5922 5924 5926 5928 5930 5931 5933 5935 5937 5940 5943 5945 5945 5945
5886 5887 5888 5889 5890 5891 5893 5894 5897 5899 5898 5899 5899 5898 5899 5899 5899 5900 5901 5901 5902 5904 5905 5907 5908 5909 5910 5912 5914 5916 5917 5919 5919 5921 5922 5924 5926 5928 5929 5931 5933 5935 5937 5939 5942 5944 5946 5947 5947
5885 5886 5887 5888 5888 5890 5892 5895 5895 5896 5898 5900 5899 5900 5900 5901 5902 5902 5903 5904 5904 5906 5906 5908 5910 5911 5913 5915 5918 5919 5921 5921 5921 5922 5924 5927 5929 5930 5931 5932 5935 5937 5939 5942 5944 5946 5947 5948 5948
5882 5883 5885 5886 5886 5887 5891 5893 5894 5894 5897 5898 5900 5901 5902 5903 5903 5904 5904 5905 5906 5908 5908 5909 5911 5912 5914 5916 5919 5920 5922 5922 5922 5924 5927 5929 5931 5932 5933 5935 5937 5940 5943 5944 5946 5947 5947 5949 5949
5880 5882 5882 5883 5884 5887 5889 5890 5892 5894 5894 5898 5900 5900 5902 5903 5904 5905 5906 5906 5907 5908 5909 5910 5911 5914 5916 5917 5919 5921 5923 5924 5925 5926 5929 5931 5933 5935 5935 5936 5939 5941 5944 5946 5947 5948 5948 5948 5949
5876 5878 5879 5879 5880 5881 5883 5884 5890 5891 5893 5896 5898 5899 5901 5903 5904 5905 5907 5906 5908 5910 5910 5911 5913 5915 5917 5919 5921 5924 5926 5927 5928 5930 5932 5933 5935 5936 5936 5937 5939 5942 5944 5946 5947 5948 5949 5950 5950
5872 5873 5875 5877 5878 5880 5881 5884 5884 5887 5891 5893 5896 5897 5901 5902 5904 5905 5907 5908 5908 5910 5911 5912 5914 5916 5918 5919 5921 5924 5926 5929 5930 5932 5933 5935 5937 5938 5939 5939 5939 5941 5944 5945 5947 5948 5949 5950 5951
5869 5870 5873 5873 5876 5879 5880 5880 5882 5885 5887 5888 5892 5895 5899 5902 5903 5904 5907 5908 5909 5910 5912 5913 5915 5917 5919 5919 5922 5924 5926 5928 5930 5932 5935 5937 5938 5939 5939 5941 5942 5943 5944 5945 5946 5948 5949 5950 5951
5864 5868 5870 5873 5874 5875 5876 5876 5876 5879 5884 5883 5890 5892 5896 5900 5901 5903 5906 5907 5909 5910 5912 5914 5916 5917 5920 5922 5923 5924 5926 5928 5931 5933 5935 5937 5939 5939 5941 5942 5943 5945 5945 5946 5947 5949 5950 5951 5951
5862 5864 5867 5872 5874 5874 5874 5873 5875 5876 5879 5883 5887 5890 5894 5898 5900 5902 5904 5906 5908 5909 5911 5913 5916 5918 5920 5923 5925 5925 5927 5929 5931 5933 5936 5938 5939 5940 5942 5943 5944 5947 5948 5949 5950 5951 5952 5952 5952
5859 5863 5865 5867 5871 5871 5872 5874 5872 5872 5874 5880 5885 5887 5891 5896 5898 5901 5903 5905 5907 5909 5911 5913 5915 5918 5920 5922 5925 5926 5928 5929 5931 5933 5936 5938 5940 5941 5943 5943 5944 5946 5947 5949 5951 5952 5952 5953 5953
5855 5860 5863 5866 5869 5870 5871 5873 5875 5876 5877 5879 5882 5885 5889 5894 5896 5900 5902 5904 5906 5909 5911 5912 5915 5918 5920 5922 5924 5926 5928 5930 5931 5933 5935 5937 5939 5941 5943 5943 5944 5944 5946 5947 5949 5951 5952 5952 5952
5853 5860 5861 5864 5867 5869 5870 5872 5873 5875 5876 5878 5880 5884 5886 5891 5895 5899 5902 5904 5905 5907 5910 5911 5914 5916 5919 5922 5924 5926 5927 5930 5932 5934 5935 5936 5939 5941 5943 5943 5944 5945 5945 5947 5948 5949 5950 5950 5950
5853 5855 5858 5861 5863 5865 5868 5870 5872 5872 5872 5874 5878 5880 5883 5888 5892 5897 5900 5902 5904 5907 5910 5911 5912 5914 5917 5921 5923 5925 5927 5929 5931 5933 5935 5937 5938 5940 5941 5942 5943 5945 5945 5947 5948 5948 5948 5949 5949
5849 5852 5855 5857 5860 5863 5864 5867 5870 5871 5870 5871 5875 5878 5881 5884 5888 5892 5896 5901 5904 5906 5909 5911 5913 5914 5917 5919 5922 5924 5926 5929 5931 5933 5934 5937 5938 5939 5941 5941 5943 5944 5945 5945 5946 5946 5947 5948 5949
5845 5848 5852 5854 5857 5859 5861 5864 5867 5868 5868 5869 5873 5874 5876 5880 5884 5886 5891 5896 5900 5903 5906 5910 5911 5913 5916 5918 5920 5922 5925 5927 5930 5931 5934 5936 5939 5940 5940 5941 5942 5943 5944 5944 5944 5945 5946 5946 5947
5843 5845 5850 5852 5854 5857 5858 5862 5864 5866 5866 5867 5870 5870 5873 5877 5883 5884 5889 5892 5897 5900 5903 5907 5910 5912 5913 5915 5917 5919 5922 5925 5927 5929 5931 5934 5937 5939 5941 5942 5942 5943 5943 5943 5943 5943 5944 5944 5944
5840 5841 5847 5850 5852 5853 5854 5859 5860 5862 5865 5866 5867 5869 5871 5873 5876 5879 5883 5888 5893 5897 5900 5904 5906 5909 5911 5913 5914 5915 5918 5921 5924 5926 5929 5930 5933 5935 5937 5939 5940 5941 5941 5942 5942 5942 5942 5942 5943
Wind_Speed
11 13 12 11 10 7 10 13 13 11 11 10 9 10 9 7 9 8 11 12 10 9 9 12 13 13 15 15 21 25 27 25 23 14 15 16 16 14 12 10 7 6 9 9 11 11 11 11 10
10 10 10 9 8 6 10 11 11 12 12 11 10 9 7 6 6 8 10 11 8 9 10 9 15 12 12 16 21 24 23 22 21 16 16 15 13 11 12 9 9 11 11 11 11 10 10 11 10
10 11 9 9 5 7 11 10 10 12 12 12 10 9 8 6 6 7 10 10 7 8 9 11 9 12 12 17 23 20 19 20 16 18 18 16 13 13 13 12 12 11 12 11 10 12 12 10 7
9 10 6 7 5 6 6 12 13 13 13 12 12 10 9 8 7 6 9 9 7 8 9 10 11 11 12 23 21 17 15 21 20 22 20 19 17 16 15 14 12 12 11 11 12 12 11 8 6
8 3 5 4 5 8 7 14 15 15 14 12 12 11 11 9 7 6 10 9 6 9 12 12 12 12 12 11 18 13 15 22 21 23 23 21 18 16 15 13 13 13 12 13 13 12 9 6 6
4 5 6 2 5 7 6 13 13 14 15 12 10 12 11 10 9 6 10 10 7 9 12 14 14 13 15 14 9 13 20 25 24 25 24 21 18 16 14 14 13 13 12 13 12 9 8 6 10
4 12 8 2 5 4 3 9 10 14 15 12 10 10 13 13 9 6 10 10 8 10 13 15 18 16 16 12 10 14 15 19 22 26 24 21 18 17 16 15 14 13 13 12 10 9 8 10 13
6 13 4 6 8 9 6 8 10 14 14 12 10 9 14 14 9 7 10 11 10 12 15 15 19 18 16 14 11 21 21 32 30 26 23 21 20 17 16 16 15 15 14 12 11 10 10 13 13
2 7 9 3 7 6 4 8 11 12 11 12 15 11 14 13 9 7 11 12 11 11 13 14 16 19 17 16 16 18 26 35 36 25 22 19 17 17 17 16 16 17 15 13 11 10 11 13 14
1 10 7 7 9 7 5 11 10 10 11 11 16 13 13 12 10 8 9 12 12 12 13 12 13 15 18 18 19 22 22 21 25 23 20 18 16 17 17 17 17 16 15 12 11 12 11 12 15
8 6 8 7 8 9 9 7 8 8 10 10 11 17 14 11 12 11 11 11 13 14 13 13 14 10 13 19 22 24 23 23 22 21 19 17 17 17 17 16 15 14 13 11 12 13 10 13 14
5 14 13 9 9 7 8 5 11 6 8 12 7 16 15 13 10 10 12 11 13 14 13 12 13 11 13 18 19 20 21 21 20 18 17 17 17 17 16 15 14 12 11 11 11 13 11 13 13
12 12 16 13 10 14 10 6 9 7 8 11 9 12 14 14 12 12 11 13 14 15 13 11 13 13 22 19 18 17 19 18 17 15 14 17 19 17 14 13 11 10 9 11 14 12 11 12 14
8 6 10 9 6 11 10 12 8 10 12 11 12 10 13 12 14 15 13 14 13 15 13 11 13 18 23 19 19 16 17 17 17 14 13 15 17 17 15 12 10 8 9 12 13 12 12 13 12
13 12 8 7 5 16 16 13 15 14 13 9 14 9 12 11 12 14 15 15 14 15 14 12 13 16 17 17 19 17 17 17 15 14 12 14 16 16 16 15 13 10 11 12 12 12 12 12 10
15 16 12 11 12 16 19 14 11 8 12 9 9 10 11 13 11 13 15 15 14 14 15 14 14 17 14 15 15 14 14 15 14 14 13 13 14 17 17 15 13 11 10 13 13 13 12 11 8
18 16 18 11 13 21 21 21 16 14 15 10 7 11 12 16 13 13 15 14 14 15 15 14 14 17 14 15 15 18 14 12 13 15 14 13 13 14 15 14 14 12 12 14 14 14 12 9 6
20 23 19 21 13 19 23 22 20 19 15 17 10 11 12 15 16 16 15 15 15 14 15 14 14 17 17 16 15 14 15 12 13 13 14 12 10 9 10 10 12 12 12 15 15 13 10 8 4
26 26 24 23 26 23 26 29 20 23 21 17 12 10 13 15 15 16 15 16 15 14 14 14 15 16 17 17 17 15 14 12 12 12 11 11 9 8 9 8 9 12 13 15 16 13 11 7 4
28 30 27 27 24 22 22 31 22 25 28 17 15 13 15 17 18 17 16 16 16 13 13 15 14 14 16 17 14 14 14 12 11 11 11 9 7 7 9 8 7 12 15 16 14 12 9 5 4
27 26 25 23 21 17 22 8 32 18 31 18 16 18 19 22 20 19 19 18 17 14 12 13 15 13 13 16 17 14 13 12 11 9 12 11 10 8 9 9 9 11 13 14 13 10 7 5 4
24 22 17 13 13 12 19 24 21 34 22 19 14 9 20 21 21 21 20 21 20 18 15 13 14 14 14 12 15 16 12 11 10 9 13 15 13 12 10 9 8 11 12 10 8 8 6 5 5
22 20 10 13 13 10 10 17 24 1 23 24 18 16 22 24 22 23 23 20 20 19 17 13 11 12 11 13 13 14 14 12 13 12 12 13 14 13 11 11 11 9 8 8 7 6 6 5 2
23 19 22 17 14 7 7 9 10 8 2 7 19 17 22 27 25 24 23 22 20 18 18 16 12 10 12 11 12 12 12 12 12 12 13 13 12 13 13 12 11 10 9 8 8 9 7 5 3
22 15 18 17 15 12 6 5 6 7 6 5 14 24 21 28 23 22 21 22 23 21 20 19 17 14 11 11 12 12 11 12 11 11 14 13 12 13 12 12 11 11 10 9 9 8 7 5 2
20 19 24 22 14 12 18 10 7 8 4 11 16 25 22 20 24 23 23 23 21 21 20 20 20 17 14 12 11 11 12 12 11 12 12 13 14 14 14 13 11 10 8 9 8 7 5 3 1
19 20 20 17 22 13 16 19 12 11 7 8 19 20 26 28 26 26 23 21 21 20 20 20 20 19 17 15 13 13 12 11 12 12 13 14 15 13 13 14 13 12 11 10 9 7 5 3 2
14 16 15 15 18 13 17 15 17 13 12 13 16 22 28 28 31 30 27 25 24 25 23 22 21 20 19 17 16 14 13 13 13 14 14 14 14 14 14 14 14 14 14 13 11 9 7 6 5
13 17 14 11 17 14 18 20 22 18 13 11 15 16 24 30 23 27 24 21 21 28 27 26 23 22 21 20 19 18 17 16 16 16 16 16 15 14 15 15 15 15 15 14 13 12 11 10 9
19 15 16 14 11 19 18 25 22 23 14 14 7 9 10 15 27 27 25 29 29 29 28 25 24 23 22 23 22 21 21 20 21 20 18 17 17 17 17 16 17 16 15 14 13 12 13 12 12
Wind_Direction
77 84 72 68 85 95 97 92 96 101 89 80 73 69 107 88 109 110 109 93 99 87 73 113 100 111 113 130 150 158 156 158 161 176 152 156 154 152 146 152 157 144 125 119 114 100 98 105 93
54 89 85 82 84 111 101 89 94 91 88 81 77 74 82 86 94 109 113 105 107 96 93 79 94 106 117 135 138 143 148 150 164 167 162 154 147 148 148 152 149 136 125 114 104 106 98 92 83
35 77 86 98 101 131 97 100 90 87 87 82 83 84 78 83 88 99 115 106 106 105 103 100 96 110 113 128 150 145 155 171 160 169 160 148 146 148 146 144 135 128 110 103 109 98 99 95 106
26 71 98 88 109 161 75 110 105 93 84 84 87 86 85 80 80 92 101 96 109 112 103 102 106 110 131 125 142 146 148 156 161 173 150 134 132 132 136 140 135 116 117 120 108 108 102 111 107
352 18 78 137 110 128 110 95 87 88 85 88 93 89 91 69 66 88 106 93 94 113 115 107 103 116 137 132 142 167 181 175 173 147 134 134 135 137 141 131 123 121 120 110 109 106 116 111 119
358 98 100 142 154 157 52 77 87 93 82 80 92 95 95 78 68 82 99 98 105 110 106 101 100 118 143 171 161 167 167 152 142 133 134 138 141 136 128 119 118 115 106 107 107 113 112 117 118
357 117 125 138 156 142 100 79 86 88 88 86 88 101 92 85 80 92 102 107 112 110 105 94 100 116 136 142 141 194 189 164 148 139 137 138 137 131 124 118 114 110 118 121 121 120 118 122 117
145 127 132 166 131 129 114 94 99 86 90 93 100 94 92 98 97 108 110 116 116 113 109 93 92 102 114 130 113 168 171 152 145 137 137 139 137 130 127 123 122 126 134 134 129 117 116 119 103
193 122 152 189 158 148 72 97 89 93 95 109 103 93 87 101 110 117 124 122 122 118 110 96 97 99 107 113 120 121 172 160 136 130 136 134 129 131 127 128 132 139 139 135 122 116 120 111 98
170 163 138 147 137 159 118 113 97 85 94 106 106 101 90 102 112 106 125 126 124 124 116 107 97 93 100 106 114 113 114 125 120 130 130 131 133 130 132 133 141 142 136 129 125 116 120 106 87
183 149 180 154 143 153 135 136 103 95 103 96 101 109 99 104 119 118 121 122 132 128 122 112 98 101 106 104 106 105 113 120 124 127 128 130 127 128 136 137 139 137 137 131 122 113 114 92 88
233 174 213 178 186 171 178 158 151 109 107 102 107 111 110 111 116 113 135 135 137 134 128 123 114 112 127 116 109 104 102 111 121 124 133 137 139 137 137 137 140 143 138 127 115 111 114 103 97
142 178 207 211 183 186 179 176 172 141 118 105 104 118 112 115 117 114 118 129 133 136 134 124 116 112 131 122 115 107 106 112 122 131 140 139 136 136 137 142 146 141 123 123 111 109 108 99 92
195 210 189 230 211 228 192 180 161 153 130 108 104 122 120 121 122 123 119 129 142 136 137 133 128 121 140 123 119 112 117 122 128 142 142 137 135 139 141 135 133 139 119 106 107 116 111 98 94
210 206 195 231 222 194 194 182 181 145 128 109 108 117 130 133 131 128 129 134 146 142 140 143 135 135 136 134 126 118 130 128 125 129 130 135 139 137 138 136 131 126 120 121 116 114 109 98 93
214 220 222 212 222 214 194 185 181 189 174 142 123 122 141 142 143 134 132 138 145 150 145 147 140 140 141 127 126 119 116 127 132 128 128 133 136 139 138 130 129 128 126 127 127 125 112 109 97
213 224 233 223 241 215 198 189 168 179 198 195 167 145 155 153 158 148 140 139 147 149 148 149 141 141 140 129 122 125 126 126 129 136 137 137 140 138 140 140 129 134 133 130 127 125 127 124 101
224 219 225 223 218 222 201 197 194 192 197 199 199 179 161 160 160 157 153 143 147 158 153 150 144 143 142 136 136 130 135 143 134 125 142 142 140 142 129 134 132 134 138 136 138 134 135 130 124
229 235 223 223 221 216 227 218 209 180 199 189 178 181 166 166 163 159 163 152 147 156 164 160 155 155 145 142 141 138 140 143 135 132 144 146 148 144 129 138 136 140 143 147 145 150 153 166 194
228 234 233 237 242 252 241 239 196 192 214 180 186 175 172 171 172 164 171 159 150 152 166 174 173 167 154 145 143 143 145 148 141 149 146 157 156 146 137 133 147 147 152 151 156 166 168 184 223
238 238 242 246 266 265 251 265 228 217 219 173 169 197 192 184 175 179 173 170 161 157 157 173 179 188 178 162 155 156 159 154 153 155 161 166 164 160 150 144 150 149 158 160 159 155 176 203 234
235 243 244 245 260 285 267 268 212 215 220 198 188 215 200 190 182 180 177 172 171 167 166 176 171 183 190 187 170 166 174 161 165 166 160 156 162 165 157 150 154 150 163 171 167 171 184 217 232
234 234 221 223 243 257 280 299 293 46 216 215 197 221 194 186 182 185 184 174 174 175 171 175 178 174 188 192 192 177 184 186 181 177 170 164 167 171 164 165 153 158 159 175 185 205 214 229 282
236 229 233 252 246 229 249 267 306 314 35 188 210 205 205 195 187 190 187 181 173 180 176 173 179 186 187 195 197 195 189 193 187 183 186 183 181 183 179 166 158 160 165 181 189 200 205 206 230
237 229 231 223 233 221 201 231 232 255 232 250 208 207 203 194 194 189 184 190 183 183 183 180 185 187 196 202 202 204 199 198 197 198 194 191 195 192 184 178 168 175 176 180 181 190 191 175 185
241 239 243 237 254 252 246 246 222 243 149 188 191 192 179 199 199 193 191 186 192 193 192 192 187 189 192 199 201 211 214 206 205 206 203 200 204 194 182 183 190 194 190 197 198 196 195 173 188
235 239 250 244 249 272 237 232 229 214 232 188 192 204 195 202 191 189 192 192 192 197 203 203 198 194 196 194 201 206 212 214 209 212 213 208 208 201 192 190 189 192 200 208 210 211 213 206 229
224 229 231 240 229 238 209 210 201 200 182 184 190 205 210 206 197 193 193 192 196 200 202 208 206 204 206 203 203 204 211 219 222 218 222 222 213 203 197 204 202 198 199 201 206 211 212 218 226
233 223 214 221 215 247 195 198 185 175 159 164 182 181 193 204 198 197 195 194 215 207 203 207 209 211 215 213 211 209 213 218 221 222 219 221 224 222 214 213 214 214 211 212 214 216 218 217 229
215 194 209 226 246 197 161 180 179 167 153 153 155 215 199 182 195 194 194 207 215 215 211 212 211 216 218 225 223 221 217 222 225 228 228 227 225 228 228 227 227 229 232 229 229 231 234 236 235